Flag for Norway Weather past 2 weeks in Kleppe, Norway

Now
67 °F

Overcast.


Feels Like: 67 °F
Forecast: 64 / 75 °F
Wind: 2 mph from South

Location: Stavanger / Sola

Current Time: Jul 1, 2015 at 9:38:49 AM

Latest Report: Jul 1, 2015 at 9:00 AM


Visibility: 19 mi

Pressure: 30.24 "Hg

Humidity: 63%

Dew point: 54 °F

Location of KleppeLocation

Historic Weather in Kleppe — Graph

°F

Kleppe temperature yesterday

Maximum temperature yesterday: 62 °F (at 8:00 PM)
Minimum temperature yesterday: 51 °F (at 4:00 AM)
Average temperature yesterday: 57 °F

Past Weeks' High & Low Weather Summary

 TemperatureHumidityPressure
High65 °F (Jun 22, 2:00 PM)99% (Jun 28, 5:00 AM)30.23 "Hg (Jun 28, 5:00 AM)
Low46 °F (Jun 26, 4:00 AM)48% (Jun 22, 3:00 PM)29.68 "Hg (Jun 22, 8:00 PM)
Average54 °F81%29.95 "Hg
* Reported Jun 16 8:00 AM — Jul 1 8:00 AM, Kleppe, Weather by CustomWeather, © 2015

Note: Actual official high and low records may vary slightly from our data, if they occured in-between our weather recording intervals... More about our weather records

Advertising

Kleppe weather history for previous 24 hours

 ConditionsComfort  
Time TempWeatherWind HumidityBarometerVisibility
8:00 AM
Wed, Jul 1
64 °FScattered clouds.2 mph62%30.23 "Hg25 mi
7:00 AM63 °FMild.2 mph63%30.23 "HgN/A
6:00 AM59 °FPartly sunny.1 mph71%30.23 "Hg25 mi
5:00 AM59 °FOvercast.2 mph73%30.22 "Hg28 mi
4:00 AM60 °FOvercast.3 mph71%30.22 "Hg28 mi
3:00 AM61 °FOvercast.1 mph72%30.21 "Hg28 mi
2:00 AM62 °FOvercast.3 mph68%30.22 "Hg28 mi
1:00 AM62 °FOvercast.5 mph67%30.21 "Hg28 mi
12:00 AM62 °FOvercast.5 mph66%30.21 "Hg28 mi
11:00 PM
Tue, Jun 30
61 °FOvercast.5 mph71%30.20 "Hg19 mi
10:00 PM61 °FOvercast.3 mph74%30.20 "Hg14 mi
9:00 PM62 °FOvercast.2 mph71%30.19 "Hg25 mi
8:00 PM62 °FPartly sunny.3 mph68%30.18 "Hg25 mi
6:00 PM62 °FScattered clouds.5 mph63%30.18 "Hg22 mi
4:00 PM60 °FScattered clouds.3 mph79%30.19 "Hg13 mi
3:00 PM58 °FScattered clouds.3 mph84%30.19 "Hg17 mi
2:00 PM61 °FScattered clouds.5 mph74%30.19 "Hg14 mi
1:00 PM61 °FScattered clouds.5 mph78%30.19 "Hg11 mi
12:00 PM60 °FSunny.3 mph79%30.18 "Hg9 mi
11:00 AM60 °FPassing clouds.1 mph77%30.17 "Hg9 mi
10:00 AM57 °FOvercast.No wind85%30.18 "Hg9 mi
9:00 AM55 °FLow clouds.1 mph89%30.18 "Hg7 mi
Weather by CustomWeather, © 2015

See weather overviewHow to use our weather pages